﻿測定場所 (Monitoring sites),日付 (Measurement date),時間 (Measurement time),線量率 最大値 (max) μGy/h,線量率 最小値 (min) μGy/h,線量率 平均値 (average) μGy/h,
小平 (Kodaira),2014-05-25,23:01～24:00,0.0356,0.0321,0.0339,
小平 (Kodaira),2014-05-25,22:01～23:00,0.0353,0.0314,0.0337,
小平 (Kodaira),2014-05-25,21:01～22:00,0.0352,0.0307,0.0336,
小平 (Kodaira),2014-05-25,20:01～21:00,0.0359,0.0319,0.0339,
小平 (Kodaira),2014-05-25,19:01～20:00,0.0359,0.0313,0.0337,
小平 (Kodaira),2014-05-25,18:01～19:00,0.0367,0.0319,0.0337,
小平 (Kodaira),2014-05-25,17:01～18:00,0.0359,0.0315,0.0337,
小平 (Kodaira),2014-05-25,16:01～17:00,0.0357,0.0319,0.0336,
小平 (Kodaira),2014-05-25,15:01～16:00,0.0353,0.0314,0.0334,
小平 (Kodaira),2014-05-25,14:01～15:00,0.0365,0.0312,0.0334,
小平 (Kodaira),2014-05-25,13:01～14:00,0.0361,0.0314,0.0337,
小平 (Kodaira),2014-05-25,12:01～13:00,0.0357,0.0307,0.0336,
小平 (Kodaira),2014-05-25,11:01～12:00,0.0359,0.0312,0.0333,
小平 (Kodaira),2014-05-25,10:01～11:00,0.0357,0.0320,0.0337,
小平 (Kodaira),2014-05-25,09:01～10:00,0.0371,0.0323,0.0346,
小平 (Kodaira),2014-05-25,08:01～09:00,0.0377,0.0338,0.0357,
小平 (Kodaira),2014-05-25,07:01～08:00,0.0378,0.0329,0.0355,
小平 (Kodaira),2014-05-25,06:01～07:00,0.0368,0.0322,0.0352,
小平 (Kodaira),2014-05-25,05:01～06:00,0.0369,0.0318,0.0343,
小平 (Kodaira),2014-05-25,04:01～05:00,0.0369,0.0323,0.0344,
小平 (Kodaira),2014-05-25,03:01～04:00,0.0364,0.0330,0.0349,
小平 (Kodaira),2014-05-25,02:01～03:00,0.0375,0.0327,0.0353,
小平 (Kodaira),2014-05-25,01:01～02:00,0.0360,0.0319,0.0340,
小平 (Kodaira),2014-05-25,00:01～01:00,0.0365,0.0317,0.0338,
小平 (Kodaira),2014-05-24,23:01～24:00,0.0357,0.0319,0.0338,
小平 (Kodaira),2014-05-24,22:01～23:00,0.0359,0.0311,0.0338,
小平 (Kodaira),2014-05-24,21:01～22:00,0.0349,0.0299,0.0333,
小平 (Kodaira),2014-05-24,20:01～21:00,0.0353,0.0307,0.0331,
小平 (Kodaira),2014-05-24,19:01～20:00,0.0354,0.0311,0.0331,
小平 (Kodaira),2014-05-24,18:01～19:00,0.0349,0.0309,0.0332,
小平 (Kodaira),2014-05-24,17:01～18:00,0.0350,0.0312,0.0331,
小平 (Kodaira),2014-05-24,16:01～17:00,0.0355,0.0301,0.0330,
小平 (Kodaira),2014-05-24,15:01～16:00,0.0350,0.0312,0.0330,
小平 (Kodaira),2014-05-24,14:01～15:00,0.0358,0.0309,0.0331,
小平 (Kodaira),2014-05-24,13:01～14:00,0.0350,0.0310,0.0327,
小平 (Kodaira),2014-05-24,12:01～13:00,0.0349,0.0305,0.0330,
小平 (Kodaira),2014-05-24,11:01～12:00,0.0357,0.0307,0.0329,
小平 (Kodaira),2014-05-24,10:01～11:00,0.0348,0.0306,0.0332,
小平 (Kodaira),2014-05-24,09:01～10:00,0.0348,0.0312,0.0330,
小平 (Kodaira),2014-05-24,08:01～09:00,0.0355,0.0311,0.0331,
小平 (Kodaira),2014-05-24,07:01～08:00,0.0353,0.0318,0.0336,
小平 (Kodaira),2014-05-24,06:01～07:00,0.0364,0.0312,0.0336,
小平 (Kodaira),2014-05-24,05:01～06:00,0.0354,0.0311,0.0332,
小平 (Kodaira),2014-05-24,04:01～05:00,0.0350,0.0312,0.0331,
小平 (Kodaira),2014-05-24,03:01～04:00,0.0349,0.0310,0.0333,
小平 (Kodaira),2014-05-24,02:01～03:00,0.0354,0.0308,0.0331,
小平 (Kodaira),2014-05-24,01:01～02:00,0.0351,0.0318,0.0332,
小平 (Kodaira),2014-05-24,00:01～01:00,0.0361,0.0314,0.0337,
小平 (Kodaira),2014-05-23,23:01～24:00,0.0356,0.0314,0.0330,
小平 (Kodaira),2014-05-23,22:01～23:00,0.0356,0.0305,0.0327,
小平 (Kodaira),2014-05-23,21:01～22:00,0.0346,0.0306,0.0326,
小平 (Kodaira),2014-05-23,20:01～21:00,0.0348,0.0304,0.0327,
小平 (Kodaira),2014-05-23,19:01～20:00,0.0355,0.0302,0.0326,
小平 (Kodaira),2014-05-23,18:01～19:00,0.0344,0.0298,0.0324,
小平 (Kodaira),2014-05-23,17:01～18:00,0.0347,0.0301,0.0327,
小平 (Kodaira),2014-05-23,16:01～17:00,0.0350,0.0304,0.0326,
小平 (Kodaira),2014-05-23,15:01～16:00,0.0348,0.0306,0.0329,
小平 (Kodaira),2014-05-23,14:01～15:00,0.0353,0.0305,0.0326,
小平 (Kodaira),2014-05-23,13:01～14:00,0.0350,0.0308,0.0329,
小平 (Kodaira),2014-05-23,12:01～13:00,0.0356,0.0313,0.0328,
小平 (Kodaira),2014-05-23,11:01～12:00,0.0352,0.0311,0.0326,
小平 (Kodaira),2014-05-23,10:01～11:00,0.0352,0.0304,0.0327,
小平 (Kodaira),2014-05-23,09:01～10:00,0.0358,0.0304,0.0329,
小平 (Kodaira),2014-05-23,08:01～09:00,0.0356,0.0306,0.0327,
小平 (Kodaira),2014-05-23,07:01～08:00,0.0342,0.0300,0.0327,
小平 (Kodaira),2014-05-23,06:01～07:00,0.0345,0.0308,0.0328,
小平 (Kodaira),2014-05-23,05:01～06:00,0.0352,0.0293,0.0325,
小平 (Kodaira),2014-05-23,04:01～05:00,0.0351,0.0308,0.0328,
小平 (Kodaira),2014-05-23,03:01～04:00,0.0360,0.0310,0.0328,
小平 (Kodaira),2014-05-23,02:01～03:00,0.0345,0.0309,0.0328,
小平 (Kodaira),2014-05-23,01:01～02:00,0.0348,0.0303,0.0326,
小平 (Kodaira),2014-05-23,00:01～01:00,0.0351,0.0309,0.0330,
小平 (Kodaira),2014-05-22,23:01～24:00,0.0352,0.0314,0.0330,
小平 (Kodaira),2014-05-22,22:01～23:00,0.0347,0.0312,0.0328,
小平 (Kodaira),2014-05-22,21:01～22:00,0.0355,0.0304,0.0328,
小平 (Kodaira),2014-05-22,20:01～21:00,0.0345,0.0305,0.0324,
小平 (Kodaira),2014-05-22,19:01～20:00,0.0339,0.0310,0.0327,
小平 (Kodaira),2014-05-22,18:01～19:00,0.0343,0.0307,0.0325,
小平 (Kodaira),2014-05-22,17:01～18:00,0.0348,0.0308,0.0329,
小平 (Kodaira),2014-05-22,16:01～17:00,0.0364,0.0318,0.0342,
小平 (Kodaira),2014-05-22,15:01～16:00,0.0414,0.0337,0.0367,
小平 (Kodaira),2014-05-22,14:01～15:00,0.0438,0.0316,0.0379,
小平 (Kodaira),2014-05-22,13:01～14:00,0.0348,0.0313,0.0331,
小平 (Kodaira),2014-05-22,12:01～13:00,0.0356,0.0303,0.0330,
小平 (Kodaira),2014-05-22,11:01～12:00,0.0356,0.0309,0.0331,
小平 (Kodaira),2014-05-22,10:01～11:00,0.0349,0.0312,0.0329,
小平 (Kodaira),2014-05-22,09:01～10:00,0.0355,0.0306,0.0331,
小平 (Kodaira),2014-05-22,08:01～09:00,0.0360,0.0319,0.0337,
小平 (Kodaira),2014-05-22,07:01～08:00,0.0359,0.0311,0.0335,
小平 (Kodaira),2014-05-22,06:01～07:00,0.0355,0.0313,0.0335,
小平 (Kodaira),2014-05-22,05:01～06:00,0.0353,0.0313,0.0335,
小平 (Kodaira),2014-05-22,04:01～05:00,0.0349,0.0303,0.0331,
小平 (Kodaira),2014-05-22,03:01～04:00,0.0351,0.0308,0.0332,
小平 (Kodaira),2014-05-22,02:01～03:00,0.0352,0.0313,0.0333,
小平 (Kodaira),2014-05-22,01:01～02:00,0.0348,0.0311,0.0333,
小平 (Kodaira),2014-05-22,00:01～01:00,0.0354,0.0313,0.0330,
小平 (Kodaira),2014-05-21,23:01～24:00,0.0346,0.0316,0.0330,
小平 (Kodaira),2014-05-21,22:01～23:00,0.0353,0.0308,0.0326,
小平 (Kodaira),2014-05-21,21:01～22:00,0.0350,0.0303,0.0328,
小平 (Kodaira),2014-05-21,20:01～21:00,0.0359,0.0310,0.0331,
小平 (Kodaira),2014-05-21,19:01～20:00,0.0358,0.0319,0.0335,
小平 (Kodaira),2014-05-21,18:01～19:00,0.0370,0.0315,0.0344,
小平 (Kodaira),2014-05-21,17:01～18:00,0.0392,0.0336,0.0357,
小平 (Kodaira),2014-05-21,16:01～17:00,0.0374,0.0331,0.0349,
小平 (Kodaira),2014-05-21,15:01～16:00,0.0390,0.0339,0.0362,
小平 (Kodaira),2014-05-21,14:01～15:00,0.0408,0.0348,0.0375,
小平 (Kodaira),2014-05-21,13:01～14:00,0.0421,0.0366,0.0386,
小平 (Kodaira),2014-05-21,12:01～13:00,0.0420,0.0354,0.0383,
小平 (Kodaira),2014-05-21,11:01～12:00,0.0466,0.0381,0.0426,
小平 (Kodaira),2014-05-21,10:01～11:00,0.0464,0.0366,0.0422,
小平 (Kodaira),2014-05-21,09:01～10:00,0.0484,0.0365,0.0430,
小平 (Kodaira),2014-05-21,08:01～09:00,0.0544,0.0451,0.0506,
小平 (Kodaira),2014-05-21,07:01～08:00,0.0541,0.0458,0.0496,
小平 (Kodaira),2014-05-21,06:01～07:00,0.0523,0.0428,0.0470,
小平 (Kodaira),2014-05-21,05:01～06:00,0.0460,0.0383,0.0416,
小平 (Kodaira),2014-05-21,04:01～05:00,0.0435,0.0362,0.0393,
小平 (Kodaira),2014-05-21,03:01～04:00,0.0495,0.0397,0.0450,
小平 (Kodaira),2014-05-21,02:01～03:00,0.0500,0.0439,0.0468,
小平 (Kodaira),2014-05-21,01:01～02:00,0.0508,0.0410,0.0454,
小平 (Kodaira),2014-05-21,00:01～01:00,0.0466,0.0376,0.0426,
小平 (Kodaira),2014-05-20,23:01～24:00,0.0414,0.0329,0.0361,
小平 (Kodaira),2014-05-20,22:01～23:00,0.0357,0.0324,0.0339,
小平 (Kodaira),2014-05-20,21:01～22:00,0.0356,0.0313,0.0334,
小平 (Kodaira),2014-05-20,20:01～21:00,0.0356,0.0321,0.0337,
小平 (Kodaira),2014-05-20,19:01～20:00,0.0361,0.0314,0.0336,
小平 (Kodaira),2014-05-20,18:01～19:00,0.0362,0.0320,0.0337,
小平 (Kodaira),2014-05-20,17:01～18:00,0.0363,0.0310,0.0337,
小平 (Kodaira),2014-05-20,16:01～17:00,0.0360,0.0309,0.0342,
小平 (Kodaira),2014-05-20,15:01～16:00,0.0356,0.0324,0.0338,
小平 (Kodaira),2014-05-20,14:01～15:00,0.0362,0.0320,0.0338,
小平 (Kodaira),2014-05-20,13:01～14:00,0.0360,0.0318,0.0341,
小平 (Kodaira),2014-05-20,12:01～13:00,0.0363,0.0322,0.0344,
小平 (Kodaira),2014-05-20,11:01～12:00,0.0364,0.0317,0.0341,
小平 (Kodaira),2014-05-20,10:01～11:00,0.0366,0.0320,0.0343,
小平 (Kodaira),2014-05-20,09:01～10:00,0.0362,0.0332,0.0345,
小平 (Kodaira),2014-05-20,08:01～09:00,0.0359,0.0318,0.0343,
小平 (Kodaira),2014-05-20,07:01～08:00,0.0369,0.0319,0.0349,
小平 (Kodaira),2014-05-20,06:01～07:00,0.0385,0.0328,0.0355,
小平 (Kodaira),2014-05-20,05:01～06:00,0.0371,0.0330,0.0352,
小平 (Kodaira),2014-05-20,04:01～05:00,0.0370,0.0330,0.0347,
小平 (Kodaira),2014-05-20,03:01～04:00,0.0365,0.0322,0.0342,
小平 (Kodaira),2014-05-20,02:01～03:00,0.0368,0.0327,0.0343,
小平 (Kodaira),2014-05-20,01:01～02:00,0.0364,0.0321,0.0342,
小平 (Kodaira),2014-05-20,00:01～01:00,0.0369,0.0321,0.0343,
小平 (Kodaira),2014-05-19,23:01～24:00,0.0367,0.0321,0.0344,
小平 (Kodaira),2014-05-19,22:01～23:00,0.0359,0.0324,0.0340,
小平 (Kodaira),2014-05-19,21:01～22:00,0.0351,0.0312,0.0338,
小平 (Kodaira),2014-05-19,20:01～21:00,0.0357,0.0319,0.0335,
小平 (Kodaira),2014-05-19,19:01～20:00,0.0356,0.0317,0.0339,
小平 (Kodaira),2014-05-19,18:01～19:00,0.0359,0.0318,0.0337,
小平 (Kodaira),2014-05-19,17:01～18:00,0.0360,0.0317,0.0341,
小平 (Kodaira),2014-05-19,16:01～17:00,0.0360,0.0328,0.0344,
小平 (Kodaira),2014-05-19,15:01～16:00,0.0359,0.0317,0.0340,
小平 (Kodaira),2014-05-19,14:01～15:00,0.0370,0.0317,0.0340,
小平 (Kodaira),2014-05-19,13:01～14:00,0.0359,0.0315,0.0338,
小平 (Kodaira),2014-05-19,12:01～13:00,0.0362,0.0320,0.0339,
小平 (Kodaira),2014-05-19,11:01～12:00,0.0365,0.0324,0.0341,
小平 (Kodaira),2014-05-19,10:01～11:00,0.0358,0.0318,0.0341,
小平 (Kodaira),2014-05-19,09:01～10:00,0.0365,0.0328,0.0344,
小平 (Kodaira),2014-05-19,08:01～09:00,0.0366,0.0314,0.0343,
小平 (Kodaira),2014-05-19,07:01～08:00,0.0380,0.0315,0.0345,
小平 (Kodaira),2014-05-19,06:01～07:00,0.0365,0.0331,0.0344,
小平 (Kodaira),2014-05-19,05:01～06:00,0.0364,0.0322,0.0343,
小平 (Kodaira),2014-05-19,04:01～05:00,0.0361,0.0321,0.0342,
小平 (Kodaira),2014-05-19,03:01～04:00,0.0366,0.0329,0.0347,
小平 (Kodaira),2014-05-19,02:01～03:00,0.0385,0.0329,0.0345,
小平 (Kodaira),2014-05-19,01:01～02:00,0.0362,0.0327,0.0345,
小平 (Kodaira),2014-05-19,00:01～01:00,0.0360,0.0321,0.0341,
